Terminal Aerodrome Forecast
Issued by NWS

Home | Current Version | Previous Version | Text Only | Print | Product List | Glossary On
Versions: 1 2 3 4 5 6 7 8 9 10 11 12 13 14
000
FTUS45 KBYZ 200525
TAFLVM
TAF
KLVM 200525Z 2006/2106 25015KT 5SM -RASN BKN020 OVC040
     FM201100 26010KT P6SM VCSH SCT020 BKN060=

USA.gov is the U.S. government's official web portal to all federal, state and local government web resources and services.